"Pseudo-MPEC" for CCCY1C2

Created 2024 Dec 2 17:31:18 UT using Find_Orb

Click here for an explanation of pseudo-MPECs

 
 Astrometry: 
     CCCY1C2*1C2024 11 23.37537203 49 08.872+10 45 42.95   ~BN9l 20.15GVNEOCPG96
     CCCY1C2 1C2024 11 23.38057203 49 02.305+10 47 54.56   ~BN9l 19.97GVNEOCPG96
     CCCY1C2 1C2024 11 23.38576903 48 55.559+10 50 08.92   ~BN9l 19.85GVNEOCPG96
     CCCY1C2  C2024 11 23.41136003 48 22.713+11 00 40.49   ~BNAl 19.7 GVNEOCPH01
     CCCY1C2  C2024 11 23.41527303 48 17.911+11 02 17.67   ~BNAl 19.8 GVNEOCPH01
     CCCY1C2  C2024 11 23.42538503 48 05.654+11 06 26.46   ~BNAl 19.8 GVNEOCPH01
     CCCY1C2  C2024 11 23.43199803 47 57.684+11 09 09.05   ~BNAl 19.8 GVNEOCPH01
     CCCY1C2 KC2024 11 23.46632603 47 17.876+11 23 05.39   ~BNBl 19.98GVNEOCPI52
     CCCY1C2 KC2024 11 23.46798103 47 15.979+11 23 44.52   ~BNBl 20.62GVNEOCPI52
     CCCY1C2 KC2024 11 23.46964203 47 14.078+11 24 23.72   ~BNBl 20.00GVNEOCPI52
     CCCY1C2 1C2024 11 26.32545803 23 17.664+19 53 34.22   ~BQ92 22.44GVNEOCPG96
     CCCY1C2 1C2024 11 26.32774403 23 16.991+19 53 44.84   ~BQ92 21.78GVNEOCPG96
     CCCY1C2 1C2024 11 26.33003003 23 16.354+19 53 55.00   ~BQ92 22.29GVNEOCPG96

Station data:
(G96) Mt. Lemmon Survey  (N32.442729 W110.788720)  US/Arizona.  Observer E.
   J. Christensen. 1.5-m reflector + 10K CCD.
(H01) Magdalena Ridge Observatory, Socorro  (N33.984833 W107.189333)  US/New
   Mexico.  Observers W. H. Ryan, E. V. Ryan. Measurer W. H. Ryan. 2.4-m
   f/8.9 reflector + CCD.
(I52) Steward Observatory, Mt. Lemmon Station  (N32.442570 W110.788920)
   US/Arizona.  Observers T. A. Pruyne, B. M. Africano, E. J. Christensen, G.
   A. Farneth, D. C. Fuls, A. R. Gibbs, A. D. Grauer, H. Gröller, J. A.
   Johnson, R. A. Kowalski, S. M. Larson, G. J. Leonard, D. Rankin, R. L.
   Seaman, F. C. Shelly, K. W. Wierzchoś. 1.0-m prime focus + CCD.

Orbital elements:  CCCY1C2
   Perihelion 2024 Sep 27.13331 +/- 0.117 TT =  3:11:57 (JD 2460580.63331)
Epoch 2024 Nov 26.0 TT = JDT 2460640.5   Earth MOID: 0.0070   Ve: 0.0085
M  44.31642848 +/- 0.26             Ma: 0.0648                   AutoNEOCP
n   0.74025184 +/- 0.00305          Peri.  250.52951 +/- 0.0009
a   1.21027217 +/- 0.00333          Node    63.07940 +/- 0.0017
e   0.5515611 +/- 0.00219           Incl.    6.00896 +/- 0.028
P   1.331/486.312d         H 27.87  G  0.15   U  8.9
q 0.54273303 +/- 0.00115    Q 1.87781131 +/- 0.00781      (J2000 ecliptic)
From 13 observations 2024 Nov. 23-26; mean residual 0".48
Residuals in arcseconds: 
241123 G96  1.1-  1.0+    241123 H01  .53+  .77-    241126 G96  .12-  .03+    
241123 G96  .96+  .96-    241123 H01  .06+  .05+    241126 G96  .16-  .15+    
241123 G96  .31-  .58+    241123 I52  .13-  .12+    241126 G96  .29+  .17-    
241123 H01  .30+  .31-    241123 I52  .17-  .17+    
241123 H01  .22+  .25-    241123 I52  .24-  .21+    

Ephemerides (geocentric):
Date (UTC) HH   RA             Dec           delta  r     elong  mag " sig PA
---- --------  ------------   ------------  ------ ------ -----  --- --------
2024 12 02 18  03 12 36.753   +23 34 04.15  .12011 1.0999 160.6 24.4 1.58 146
2024 12 02 19  03 12 35.249   +23 34 41.06  .12055 1.1003 160.6 24.4 1.59 146
2024 12 02 20  03 12 33.762   +23 35 17.70  .12100 1.1006 160.5 24.4 1.59 146
2024 12 02 21  03 12 32.293   +23 35 54.08  .12144 1.1010 160.5 24.4 1.59 146
2024 12 02 22  03 12 30.840   +23 36 30.18  .12189 1.1014 160.4 24.4 1.60 146
2024 12 02 23  03 12 29.403   +23 37 06.03  .12233 1.1018 160.4 24.4 1.60 146
2024 12 03 00  03 12 27.984   +23 37 41.61  .12278 1.1022 160.4 24.4 1.60 146
2024 12 03 01  03 12 26.581   +23 38 16.93  .12323 1.1026 160.3 24.5 1.61 146
2024 12 03 02  03 12 25.194   +23 38 52.00  .12367 1.1030 160.3 24.5 1.61 146
2024 12 03 03  03 12 23.823   +23 39 26.81  .12412 1.1034 160.2 24.5 1.61 146
2024 12 03 04  03 12 22.468   +23 40 01.38  .12457 1.1038 160.2 24.5 1.62 147
2024 12 03 05  03 12 21.129   +23 40 35.70  .12501 1.1041 160.1 24.5 1.62 147
2024 12 03 06  03 12 19.806   +23 41 09.78  .12546 1.1045 160.1 24.5 1.62 147
2024 12 03 07  03 12 18.499   +23 41 43.61  .12591 1.1049 160.0 24.5 1.62 147
2024 12 03 08  03 12 17.207   +23 42 17.20  .12635 1.1053 160.0 24.5 1.63 147
2024 12 03 09  03 12 15.930   +23 42 50.56  .12680 1.1057 159.9 24.5 1.63 147
2024 12 03 10  03 12 14.669   +23 43 23.68  .12725 1.1061 159.9 24.5 1.63 147
2024 12 03 11  03 12 13.423   +23 43 56.57  .12769 1.1065 159.8 24.5 1.63 147
2024 12 03 12  03 12 12.192   +23 44 29.23  .12814 1.1069 159.8 24.6 1.64 147
2024 12 03 13  03 12 10.975   +23 45 01.67  .12859 1.1073 159.8 24.6 1.64 147
2024 12 03 14  03 12 09.774   +23 45 33.88  .12903 1.1076 159.7 24.6 1.64 148
2024 12 03 15  03 12 08.587   +23 46 05.86  .12948 1.1080 159.7 24.6 1.64 148
2024 12 03 16  03 12 07.414   +23 46 37.63  .12993 1.1084 159.6 24.6 1.65 148
2024 12 03 17  03 12 06.256   +23 47 09.18  .13038 1.1088 159.6 24.6 1.65 148
2024 12 03 18  03 12 05.113   +23 47 40.51  .13083 1.1092 159.5 24.6 1.65 148
2024 12 03 19  03 12 03.983   +23 48 11.63  .13127 1.1096 159.5 24.6 1.65 148
2024 12 03 20  03 12 02.868   +23 48 42.54  .13172 1.1100 159.4 24.6 1.65 148
2024 12 03 21  03 12 01.766   +23 49 13.24  .13217 1.1104 159.4 24.6 1.66 148
2024 12 03 22  03 12 00.679   +23 49 43.73  .13262 1.1107 159.4 24.6 1.66 148
2024 12 03 23  03 11 59.605   +23 50 14.02  .13307 1.1111 159.3 24.7 1.66 149
2024 12 04 00  03 11 58.545   +23 50 44.11  .13351 1.1115 159.3 24.7 1.66 149
2024 12 04 01  03 11 57.499   +23 51 13.99  .13396 1.1119 159.2 24.7 1.66 149
2024 12 04 02  03 11 56.465   +23 51 43.67  .13441 1.1123 159.2 24.7 1.67 149
2024 12 04 03  03 11 55.446   +23 52 13.16  .13486 1.1127 159.1 24.7 1.67 149
2024 12 04 04  03 11 54.439   +23 52 42.46  .13531 1.1131 159.1 24.7 1.67 149
2024 12 04 05  03 11 53.446   +23 53 11.56  .13576 1.1134 159.0 24.7 1.67 149
2024 12 04 06  03 11 52.466   +23 53 40.47  .13621 1.1138 159.0 24.7 1.67 149
2024 12 04 07  03 11 51.499   +23 54 09.19  .13666 1.1142 159.0 24.7 1.67 150
2024 12 04 08  03 11 50.544   +23 54 37.72  .13711 1.1146 158.9 24.7 1.67 150
2024 12 04 09  03 11 49.603   +23 55 06.07  .13756 1.1150 158.9 24.7 1.68 150
2024 12 04 10  03 11 48.674   +23 55 34.23  .13800 1.1154 158.8 24.8 1.68 150
2024 12 04 11  03 11 47.757   +23 56 02.21  .13845 1.1158 158.8 24.8 1.68 150
2024 12 04 12  03 11 46.854   +23 56 30.01  .13890 1.1162 158.7 24.8 1.68 150
2024 12 04 13  03 11 45.962   +23 56 57.63  .13935 1.1165 158.7 24.8 1.68 150
2024 12 04 14  03 11 45.083   +23 57 25.08  .13980 1.1169 158.6 24.8 1.68 151
2024 12 04 15  03 11 44.217   +23 57 52.35  .14025 1.1173 158.6 24.8 1.68 151
2024 12 04 16  03 11 43.362   +23 58 19.45  .14070 1.1177 158.6 24.8 1.68 151
2024 12 04 17  03 11 42.520   +23 58 46.38  .14115 1.1181 158.5 24.8 1.69 151